Погода в Армавире

Армения     40°09′19″N   44°02′19″E
темп.,
°C
ветер,
м/с
пор.,
м/с
влажн.,
%
обл.,
%
осадки,
мм/ч
давл.,
гПа
погр.,
м
12 мая, ср
ср1201:00+12с01490 0.0 101111
04:00+10сз11540 0.0 101214
07:00+12с01570 0.0 101317
10:00+18юв23390 0.0 1013647
13:00+23вюв33240 0.0 10111513
16:00+25вюв33213 0.0 10101851
19:00+23в34312 0.0 101082
22:00+18ссв22300 0.0 101111
13 мая, чт
чт1301:00+14юв11390 0.0 101211
04:00+14зсз11400 0.0 101211
07:00+16зсз11452 0.0 101414
10:00+22юв23290 0.0 1014596
13:00+26вюв442317 0.0 10121185
16:00+25ююз8727100 0.1 10111068
19:00+19сз3349100 0.4 101369
22:00+17ссв2248100 0.6 101522
14 мая, пт
пт1401:00+16ю1145100 0.0 101411
04:00+15ссз1151100 0.0 101412
07:00+16з01532 0.0 101617
10:00+22ююв11382 0.0 1015650
13:00+26юв33290 0.0 10131420
16:00+28вюв44230 0.0 10101838
19:00+23юв484061 0.0 1011389
22:00+17ссз225394 0.1 101421
15 мая, сб
сб1501:00+15ссв11616 0.0 101511
04:00+14сз11610 0.0 101411
07:00+16сз01590 0.0 101526
10:00+21ююв11430 0.0 1014692
13:00+25ююв22332 0.0 10121440
16:00+27юв33294 0.1 10092078
19:00+26св333640 0.1 1009103
22:00+20ссв2246100 0.6 101121
16 мая, вс
вс1601:00+16зсз226387 0.1 101227
04:00+15з12677 0.2 101216
07:00+17зсз01625 0.0 101246
10:00+22юв34460 0.0 1011935
13:00+26юв55340 0.0 10091658
16:00+27вюв65230 0.0 10071800
19:00+22ссз3344100 0.1 100775
22:00+19ссв2343100 0.1 101039